Tracking 29510 objects as of 15-Sep-2024
HD Live streaming from Space Station
objects crossing your sky now

STARLINK-5442

Track STARLINK-5442 now!
10-day predictions
STARLINK-5442 is classified as:


NORAD ID: 54784
Int'l Code: 2022-175AC
Perigee: 546.0 km
Apogee: 548.0 km
Inclination: 53.2 °
Period: 95.4 minutes
Semi major axis: 6917 km
RCS: Unknown
Launch date: December 17, 2022
Source: United States (US)
Launch site: AIR FORCE EASTERN TEST RANGE (AFETR)
Your satellite tracking list
Your tracking list is empty




NASA's NSSDC Master Catalog

Two Line Element Set (TLE):
1 54784U 22175AC  24258.84745906 -.00007314  00000-0 -44230-3 0  9992
2 54784  53.2175 311.8167 0001457  99.7745 260.3411 15.08810455 98278
Source of the keplerian elements: AFSPC